Time,TemperatureF,DewpointF,PressureIn,WindDirection,WindDirectionDegrees,WindSpeedMPH,WindSpeedGustMPH,Humidity,HourlyPrecipIn,Conditions,Clouds,dailyrainin,SoftwareType,DateUTC
2013-09-21 00:01:00,63.3,59.7,29.76,NW,305,3.3,4.0,88,0.00,,---,0.00,VWS V14.01,2013-09-21 04:01:00,
2013-09-21 00:02:00,63.3,59.7,29.76,NW,305,3.0,3.0,88,0.00,,---,0.00,VWS V14.01,2013-09-21 04:02:00,
2013-09-21 00:03:00,63.3,59.7,29.76,West,260,2.3,3.0,88,0.00,,---,0.00,VWS V14.01,2013-09-21 04:03:00,
2013-09-21 00:04:00,63.1,59.2,29.76,SW,215,3.6,3.6,87,0.00,,---,0.00,VWS V14.01,2013-09-21 04:04:00,
2013-09-21 00:05:00,63.1,59.2,29.76,SW,215,3.6,3.6,87,0.00,,---,0.00,VWS V14.01,2013-09-21 04:05:00,
2013-09-21 00:10:00,62.9,59.3,29.76,North,350,3.0,3.0,88,0.00,,---,0.00,VWS V14.01,2013-09-21 04:10:00,
2013-09-21 00:15:00,62.9,59.0,29.76,NW,305,7.0,7.0,87,0.00,,---,0.00,VWS V14.01,2013-09-21 04:15:00,
2013-09-21 00:20:00,62.7,58.8,29.76,NW,305,1.7,1.7,87,0.00,,---,0.00,VWS V14.01,2013-09-21 04:20:00,
2013-09-21 00:25:00,62.5,58.6,29.76,NW,305,3.6,3.6,87,0.00,,---,0.00,VWS V14.01,2013-09-21 04:25:00,
2013-09-21 00:30:00,62.5,58.3,29.76,NW,305,4.0,4.0,86,0.00,,---,0.00,VWS V14.01,2013-09-21 04:30:00,
2013-09-21 00:35:00,62.4,58.1,29.76,NW,305,0.0,3.0,86,0.00,,---,0.00,VWS V14.01,2013-09-21 04:35:00,
2013-09-21 00:41:00,62.2,58.0,29.76,WNW,282,3.0,3.6,86,0.00,,---,0.00,VWS V14.01,2013-09-21 04:41:00,
2013-09-21 00:46:00,62.2,58.0,29.76,NW,305,2.3,2.3,86,0.00,,---,0.00,VWS V14.01,2013-09-21 04:46:00,
2013-09-21 00:51:00,62.0,57.8,29.76,NW,305,0.0,2.3,86,0.00,,---,0.00,VWS V14.01,2013-09-21 04:51:00,
2013-09-21 00:56:00,62.0,57.8,29.76,NW,305,0.0,0.0,86,0.00,,---,0.00,VWS V14.01,2013-09-21 04:56:00,
2013-09-21 01:01:00,62.0,58.1,29.76,NW,305,0.0,0.0,87,0.00,,---,0.00,VWS V14.01,2013-09-21 05:01:00,
2013-09-21 01:06:00,61.8,57.9,29.76,WNW,282,0.0,0.0,87,0.00,,---,0.00,VWS V14.01,2013-09-21 05:06:00,
2013-09-21 01:11:00,61.6,57.7,29.76,NW,305,0.0,0.0,87,0.00,,---,0.00,VWS V14.01,2013-09-21 05:11:00,
2013-09-21 01:16:00,61.6,57.7,29.76,NW,305,0.0,0.0,87,0.00,,---,0.00,VWS V14.01,2013-09-21 05:16:00,
2013-09-21 01:21:00,61.3,57.1,29.76,West,260,0.0,0.0,86,0.00,,---,0.00,VWS V14.01,2013-09-21 05:21:00,
2013-09-21 01:26:00,61.3,57.4,29.76,NW,305,0.0,0.0,87,0.00,,---,0.00,VWS V14.01,2013-09-21 05:26:00,
2013-09-21 01:31:00,61.3,57.4,29.76,NW,305,0.0,0.0,87,0.00,,---,0.00,VWS V14.01,2013-09-21 05:31:00,
2013-09-21 01:36:00,61.1,57.2,29.76,NW,305,0.0,0.0,87,0.00,,---,0.00,VWS V14.01,2013-09-21 05:36:00,
2013-09-21 01:41:00,60.9,57.0,29.76,NW,305,0.0,0.0,87,0.00,,---,0.00,VWS V14.01,2013-09-21 05:41:00,
2013-09-21 01:46:00,60.7,56.8,29.76,NW,305,0.0,0.0,87,0.00,,---,0.00,VWS V14.01,2013-09-21 05:46:00,
2013-09-21 01:51:00,60.7,56.8,29.76,NW,305,0.0,0.0,87,0.00,,---,0.00,VWS V14.01,2013-09-21 05:51:00,
2013-09-21 01:56:00,60.4,56.5,29.76,NW,305,0.0,0.0,87,0.00,,---,0.00,VWS V14.01,2013-09-21 05:56:00,
2013-09-21 02:01:00,60.4,56.5,29.74,NW,305,0.0,0.0,87,0.00,,---,0.00,VWS V14.01,2013-09-21 06:01:00,
2013-09-21 02:06:00,60.2,56.3,29.74,NW,305,0.0,0.0,87,0.00,,---,0.00,VWS V14.01,2013-09-21 06:06:00,
2013-09-21 02:11:00,60.0,56.5,29.74,NW,305,0.0,0.0,88,0.00,,---,0.00,VWS V14.01,2013-09-21 06:11:00,
2013-09-21 02:20:00,60.0,56.5,29.76,NW,305,0.0,0.0,88,0.00,,---,0.00,VWS V14.01,2013-09-21 06:20:00,
2013-09-21 02:26:00,59.8,56.3,29.76,West,260,0.0,0.0,88,0.00,,---,0.00,VWS V14.01,2013-09-21 06:26:00,
2013-09-21 02:31:00,59.8,56.6,29.74,West,260,0.0,0.0,89,0.00,,---,0.00,VWS V14.01,2013-09-21 06:31:00,
2013-09-21 02:36:00,59.7,56.4,29.74,West,260,0.0,0.0,89,0.00,,---,0.00,VWS V14.01,2013-09-21 06:36:00,
2013-09-21 02:41:00,59.5,56.2,29.74,West,260,0.0,0.0,89,0.00,,---,0.00,VWS V14.01,2013-09-21 06:41:00,
2013-09-21 02:46:00,59.5,56.2,29.74,West,260,0.0,0.0,89,0.00,,---,0.00,VWS V14.01,2013-09-21 06:46:00,
2013-09-21 02:51:00,59.3,56.1,29.74,West,260,0.0,0.0,89,0.00,,---,0.00,VWS V14.01,2013-09-21 06:51:00,
2013-09-21 02:56:00,59.3,56.1,29.74,West,260,0.0,0.0,89,0.00,,---,0.00,VWS V14.01,2013-09-21 06:56:00,
2013-09-21 03:01:00,59.3,56.1,29.74,West,260,0.0,0.0,89,0.00,,---,0.00,VWS V14.01,2013-09-21 07:01:00,
2013-09-21 03:07:00,59.1,55.9,29.74,West,260,0.0,0.0,89,0.00,,---,0.00,VWS V14.01,2013-09-21 07:07:00,
2013-09-21 03:12:00,59.1,55.9,29.74,West,260,0.0,0.0,89,0.00,,---,0.00,VWS V14.01,2013-09-21 07:12:00,
2013-09-21 03:17:00,58.9,55.7,29.74,NW,305,0.0,0.0,89,0.00,,---,0.00,VWS V14.01,2013-09-21 07:17:00,
2013-09-21 03:22:00,58.9,55.7,29.74,NW,305,0.0,0.0,89,0.00,,---,0.00,VWS V14.01,2013-09-21 07:22:00,
2013-09-21 03:28:00,58.8,55.8,29.74,NW,305,0.0,0.0,90,0.00,,---,0.00,VWS V14.01,2013-09-21 07:28:00,
2013-09-21 03:33:00,58.8,55.8,29.74,NW,305,0.0,1.3,90,0.00,,---,0.00,VWS V14.01,2013-09-21 07:33:00,
2013-09-21 03:38:00,58.8,55.8,29.74,NW,305,0.0,0.0,90,0.00,,---,0.00,VWS V14.01,2013-09-21 07:38:00,
2013-09-21 03:43:00,58.9,56.0,29.74,North,350,0.0,0.0,90,0.00,,---,0.00,VWS V14.01,2013-09-21 07:43:00,
2013-09-21 03:48:00,58.8,55.8,29.74,North,350,0.0,0.0,90,0.00,,---,0.00,VWS V14.01,2013-09-21 07:48:00,
2013-09-21 03:53:00,58.8,55.8,29.74,NW,305,0.0,0.0,90,0.00,,---,0.00,VWS V14.01,2013-09-21 07:53:00,
2013-09-21 03:58:00,58.9,56.0,29.74,WNW,282,0.0,0.0,90,0.00,,---,0.00,VWS V14.01,2013-09-21 07:58:00,
2013-09-21 04:03:00,58.8,55.8,29.74,North,350,0.0,0.0,90,0.00,,---,0.00,VWS V14.01,2013-09-21 08:03:00,
2013-09-21 04:08:00,58.8,55.8,29.74,NW,305,0.0,0.0,90,0.00,,---,0.00,VWS V14.01,2013-09-21 08:08:00,
2013-09-21 04:13:00,58.8,55.8,29.74,NW,305,0.0,0.0,90,0.00,,---,0.00,VWS V14.01,2013-09-21 08:13:00,
2013-09-21 04:18:00,58.9,56.0,29.74,NW,305,0.0,0.0,90,0.00,,---,0.00,VWS V14.01,2013-09-21 08:18:00,
2013-09-21 04:23:00,58.6,55.7,29.74,WNW,282,0.0,0.0,90,0.00,,---,0.00,VWS V14.01,2013-09-21 08:23:00,
2013-09-21 04:28:00,58.6,55.7,29.74,NW,305,0.0,0.0,90,0.00,,---,0.00,VWS V14.01,2013-09-21 08:28:00,
2013-09-21 04:33:00,58.6,55.7,29.74,NW,305,0.0,0.0,90,0.00,,---,0.00,VWS V14.01,2013-09-21 08:33:00,
2013-09-21 04:38:00,58.6,55.7,29.74,NW,305,0.0,0.0,90,0.00,,---,0.00,VWS V14.01,2013-09-21 08:38:00,
2013-09-21 04:44:00,58.4,55.5,29.74,West,260,0.0,0.0,90,0.00,,---,0.00,VWS V14.01,2013-09-21 08:44:00,
2013-09-21 04:49:00,58.2,55.3,29.74,West,260,0.0,0.0,90,0.00,,---,0.00,VWS V14.01,2013-09-21 08:49:00,
2013-09-21 04:54:00,58.2,55.6,29.74,West,260,0.0,0.0,91,0.00,,---,0.00,VWS V14.01,2013-09-21 08:54:00,
2013-09-21 04:59:00,58.0,55.4,29.74,West,260,0.0,0.0,91,0.00,,---,0.00,VWS V14.01,2013-09-21 08:59:00,
2013-09-21 05:04:00,57.9,55.2,29.74,West,260,0.0,0.0,91,0.00,,---,0.00,VWS V14.01,2013-09-21 09:04:00,
2013-09-21 05:09:00,57.9,55.2,29.74,West,260,0.0,0.0,91,0.00,,---,0.00,VWS V14.01,2013-09-21 09:09:00,
2013-09-21 05:14:00,57.7,55.1,29.71,West,260,0.0,0.0,91,0.00,,---,0.00,VWS V14.01,2013-09-21 09:14:00,
2013-09-21 05:19:00,57.5,54.9,29.71,West,260,0.0,0.0,91,0.00,,---,0.00,VWS V14.01,2013-09-21 09:19:00,
2013-09-21 05:24:00,57.3,54.7,29.71,West,260,0.0,0.0,91,0.00,,---,0.00,VWS V14.01,2013-09-21 09:24:00,
2013-09-21 05:29:00,57.0,54.4,29.74,West,260,0.0,0.0,91,0.00,,---,0.00,VWS V14.01,2013-09-21 09:29:00,
2013-09-21 05:34:00,57.0,54.4,29.74,West,260,0.0,0.0,91,0.00,,---,0.00,VWS V14.01,2013-09-21 09:34:00,
2013-09-21 05:39:00,57.0,54.4,29.74,West,260,0.0,0.0,91,0.00,,---,0.00,VWS V14.01,2013-09-21 09:39:00,
2013-09-21 05:44:00,56.8,54.2,29.71,West,260,0.0,0.0,91,0.00,,---,0.00,VWS V14.01,2013-09-21 09:44:00,
2013-09-21 05:49:00,56.6,54.0,29.71,West,260,0.0,0.0,91,0.00,,---,0.00,VWS V14.01,2013-09-21 09:49:00,
2013-09-21 05:54:00,56.6,54.0,29.71,West,260,0.0,0.0,91,0.00,,---,0.00,VWS V14.01,2013-09-21 09:54:00,
2013-09-21 05:59:00,56.2,54.0,29.74,West,260,0.0,0.0,92,0.00,,---,0.00,VWS V14.01,2013-09-21 09:59:00,
2013-09-21 06:04:00,56.2,54.0,29.74,West,260,0.0,0.0,92,0.00,,---,0.00,VWS V14.01,2013-09-21 10:04:00,
2013-09-21 06:09:00,56.4,54.1,29.74,WNW,282,0.0,0.0,92,0.00,,---,0.00,VWS V14.01,2013-09-21 10:09:00,
2013-09-21 06:14:00,56.2,54.0,29.74,WNW,282,0.0,0.0,92,0.00,,---,0.00,VWS V14.01,2013-09-21 10:14:00,
2013-09-21 06:19:00,56.2,54.0,29.74,WNW,282,0.0,0.0,92,0.00,,---,0.00,VWS V14.01,2013-09-21 10:19:00,
2013-09-21 06:24:00,56.2,54.2,29.74,WNW,282,0.0,0.0,93,0.00,,---,0.00,VWS V14.01,2013-09-21 10:24:00,
2013-09-21 06:29:00,56.4,54.4,29.74,WNW,282,0.0,0.0,93,0.00,,---,0.00,VWS V14.01,2013-09-21 10:29:00,
2013-09-21 06:34:00,56.6,54.6,29.74,WNW,282,0.0,0.0,93,0.00,,---,0.00,VWS V14.01,2013-09-21 10:34:00,
2013-09-21 06:40:00,56.6,54.6,29.74,NW,305,1.7,1.7,93,0.00,,---,0.00,VWS V14.01,2013-09-21 10:40:00,
2013-09-21 06:45:00,56.8,54.8,29.74,NW,305,2.0,2.0,93,0.00,,---,0.00,VWS V14.01,2013-09-21 10:45:00,
2013-09-21 06:50:00,57.0,55.0,29.74,NW,305,2.0,2.0,93,0.00,,---,0.00,VWS V14.01,2013-09-21 10:50:00,
2013-09-21 06:55:00,57.1,55.1,29.74,NW,305,5.3,5.3,93,0.00,,---,0.00,VWS V14.01,2013-09-21 10:55:00,
2013-09-21 07:00:00,57.3,55.6,29.74,NW,305,0.0,5.0,94,0.00,,---,0.00,VWS V14.01,2013-09-21 11:00:00,
2013-09-21 07:05:00,57.5,55.8,29.74,NW,305,0.0,0.0,94,0.00,,---,0.00,VWS V14.01,2013-09-21 11:05:00,
2013-09-21 07:10:00,57.5,55.8,29.74,NW,305,4.3,4.3,94,0.00,,---,0.00,VWS V14.01,2013-09-21 11:10:00,
2013-09-21 07:15:00,57.7,56.0,29.74,NW,305,4.0,4.0,94,0.00,,---,0.00,VWS V14.01,2013-09-21 11:15:00,
2013-09-21 07:20:00,57.9,56.2,29.74,North,350,3.6,3.6,94,0.00,,---,0.00,VWS V14.01,2013-09-21 11:20:00,
2013-09-21 07:25:00,57.9,56.2,29.74,North,350,2.3,2.3,94,0.00,,---,0.00,VWS V14.01,2013-09-21 11:25:00,
2013-09-21 07:30:00,58.0,56.3,29.74,NW,305,2.0,2.0,94,0.00,,---,0.00,VWS V14.01,2013-09-21 11:30:00,
2013-09-21 07:35:00,58.0,56.3,29.74,NW,305,1.7,4.0,94,0.00,,---,0.00,VWS V14.01,2013-09-21 11:35:00,
2013-09-21 07:40:00,57.9,56.2,29.74,North,350,5.6,5.6,94,0.00,,---,0.00,VWS V14.01,2013-09-21 11:40:00,
2013-09-21 07:45:00,57.9,55.8,29.74,NW,305,5.0,5.0,93,0.00,,---,0.00,VWS V14.01,2013-09-21 11:45:00,
2013-09-21 07:50:00,57.7,55.7,29.74,North,350,5.0,5.0,93,0.00,,---,0.00,VWS V14.01,2013-09-21 11:50:00,
2013-09-21 07:55:00,57.5,55.5,29.74,NW,305,4.0,5.6,93,0.00,,---,0.00,VWS V14.01,2013-09-21 11:55:00,
2013-09-21 08:00:00,57.5,55.2,29.74,North,350,1.3,2.3,92,0.00,,---,0.00,VWS V14.01,2013-09-21 12:00:00,
2013-09-21 08:05:00,57.3,55.0,29.74,North,350,4.0,4.0,92,0.00,,---,0.00,VWS V14.01,2013-09-21 12:05:00,
2013-09-21 08:10:00,57.3,55.0,29.74,NW,305,4.3,4.3,92,0.00,,---,0.00,VWS V14.01,2013-09-21 12:10:00,
2013-09-21 08:15:00,57.3,54.7,29.76,NW,305,3.6,3.6,91,0.00,,---,0.00,VWS V14.01,2013-09-21 12:15:00,
2013-09-21 08:20:00,57.3,54.7,29.76,North,350,4.0,5.0,91,0.00,,---,0.00,VWS V14.01,2013-09-21 12:20:00,
2013-09-21 08:25:00,57.3,54.7,29.76,North,350,5.6,5.6,91,0.00,,---,0.00,VWS V14.01,2013-09-21 12:25:00,
2013-09-21 08:30:00,57.3,54.7,29.76,North,350,2.3,4.0,91,0.00,,---,0.00,VWS V14.01,2013-09-21 12:30:00,
2013-09-21 08:35:00,57.3,54.7,29.76,WSW,238,8.6,8.6,91,0.00,,---,0.00,VWS V14.01,2013-09-21 12:35:00,
2013-09-21 08:40:00,57.3,54.7,29.76,North,350,5.0,5.0,91,0.00,,---,0.00,VWS V14.01,2013-09-21 12:40:00,
2013-09-21 08:45:00,57.1,54.2,29.76,NW,305,6.0,6.0,90,0.00,,---,0.00,VWS V14.01,2013-09-21 12:45:00,
2013-09-21 08:50:00,57.1,54.2,29.76,North,350,8.9,8.9,90,0.00,,---,0.00,VWS V14.01,2013-09-21 12:50:00,
2013-09-21 08:55:00,57.3,54.1,29.76,North,350,5.6,7.9,89,0.00,,---,0.00,VWS V14.01,2013-09-21 12:55:00,
2013-09-21 09:00:00,57.3,54.1,29.76,West,260,4.6,5.3,89,0.00,,---,0.00,VWS V14.01,2013-09-21 13:00:00,
2013-09-21 09:05:00,57.3,54.1,29.76,NE,35,4.0,4.0,89,0.00,,---,0.00,VWS V14.01,2013-09-21 13:05:00,
2013-09-21 09:11:00,57.5,54.0,29.76,North,350,5.0,8.3,88,0.00,,---,0.00,VWS V14.01,2013-09-21 13:11:00,
2013-09-21 09:16:00,57.7,54.2,29.76,NE,35,4.3,6.0,88,0.00,,---,0.00,VWS V14.01,2013-09-21 13:16:00,
2013-09-21 09:21:00,57.7,54.2,29.76,North,350,4.6,9.3,88,0.00,,---,0.00,VWS V14.01,2013-09-21 13:21:00,
2013-09-21 09:26:00,57.7,53.8,29.76,North,350,6.0,6.0,87,0.00,,---,0.00,VWS V14.01,2013-09-21 13:26:00,
2013-09-21 09:31:00,57.9,54.0,29.76,NW,305,4.6,5.6,87,0.00,,---,0.00,VWS V14.01,2013-09-21 13:31:00,
2013-09-21 09:36:00,57.9,53.7,29.76,North,350,4.0,4.0,86,0.00,,---,0.00,VWS V14.01,2013-09-21 13:36:00,
2013-09-21 09:41:00,57.9,53.7,29.76,NW,305,12.6,12.6,86,0.00,,---,0.00,VWS V14.01,2013-09-21 13:41:00,
2013-09-21 09:46:00,58.0,53.6,29.76,NE,35,3.0,7.3,85,0.00,,---,0.00,VWS V14.01,2013-09-21 13:46:00,
2013-09-21 09:51:00,58.2,53.7,29.76,North,350,4.6,5.0,85,0.00,,---,0.00,VWS V14.01,2013-09-21 13:51:00,
2013-09-21 09:56:00,58.4,53.6,29.76,North,350,4.6,6.0,84,0.00,,---,0.00,VWS V14.01,2013-09-21 13:56:00,
2013-09-21 10:01:00,58.4,53.3,29.79,North,350,4.6,7.0,83,0.00,,---,0.00,VWS V14.01,2013-09-21 14:01:00,
2013-09-21 10:06:00,58.6,53.4,29.79,North,350,5.3,6.6,83,0.00,,---,0.00,VWS V14.01,2013-09-21 14:06:00,
2013-09-21 10:11:00,58.6,53.1,29.79,North,350,7.9,7.9,82,0.00,,---,0.00,VWS V14.01,2013-09-21 14:11:00,
2013-09-21 10:16:00,58.6,53.1,29.79,North,350,10.9,10.9,82,0.00,,---,0.00,VWS V14.01,2013-09-21 14:16:00,
2013-09-21 10:21:00,58.6,52.4,29.79,NW,305,7.9,7.9,80,0.00,,---,0.00,VWS V14.01,2013-09-21 14:21:00,
2013-09-21 10:26:00,58.6,52.8,29.79,West,260,8.6,8.6,81,0.00,,---,0.00,VWS V14.01,2013-09-21 14:26:00,
2013-09-21 10:31:00,58.8,53.0,29.79,NW,305,5.6,5.6,81,0.00,,---,0.00,VWS V14.01,2013-09-21 14:31:00,
2013-09-21 10:36:00,58.8,53.0,29.79,NW,305,7.3,8.6,81,0.00,,---,0.00,VWS V14.01,2013-09-21 14:36:00,
2013-09-21 10:41:00,58.8,52.6,29.79,NW,305,7.0,8.6,80,0.00,,---,0.00,VWS V14.01,2013-09-21 14:41:00,
2013-09-21 10:46:00,58.9,52.8,29.79,North,350,4.3,4.3,80,0.00,,---,0.00,VWS V14.01,2013-09-21 14:46:00,
2013-09-21 10:51:00,58.9,52.5,29.79,North,350,4.6,4.6,79,0.00,,---,0.00,VWS V14.01,2013-09-21 14:51:00,
2013-09-21 10:56:00,59.3,52.5,29.79,North,350,4.3,4.3,78,0.00,,---,0.00,VWS V14.01,2013-09-21 14:56:00,
2013-09-21 11:01:00,59.5,52.6,29.79,North,350,3.3,5.3,78,0.00,,---,0.00,VWS V14.01,2013-09-21 15:01:00,
2013-09-21 11:06:00,59.8,53.3,29.79,NW,305,4.3,7.3,79,0.00,,---,0.00,VWS V14.01,2013-09-21 15:06:00,
2013-09-21 11:11:00,60.0,52.8,29.79,ENE,58,6.0,11.3,77,0.00,,---,0.00,VWS V14.01,2013-09-21 15:11:00,
2013-09-21 11:16:00,60.0,52.8,29.79,NW,305,7.3,7.3,77,0.00,,---,0.00,VWS V14.01,2013-09-21 15:16:00,
2013-09-21 11:21:00,60.0,52.4,29.79,West,260,6.0,6.0,76,0.00,,---,0.00,VWS V14.01,2013-09-21 15:21:00,
2013-09-21 11:26:00,60.0,51.3,29.79,North,350,4.6,4.6,73,0.00,,---,0.00,VWS V14.01,2013-09-21 15:26:00,
2013-09-21 11:31:00,60.2,51.5,29.79,North,350,12.6,12.6,73,0.00,,---,0.00,VWS V14.01,2013-09-21 15:31:00,
2013-09-21 11:37:00,60.7,51.7,29.79,North,350,7.3,7.3,72,0.00,,---,0.00,VWS V14.01,2013-09-21 15:37:00,
2013-09-21 11:42:00,60.7,52.0,29.79,West,260,2.3,6.3,73,0.00,,---,0.00,VWS V14.01,2013-09-21 15:42:00,
2013-09-21 11:47:00,60.9,52.2,29.79,West,260,6.3,6.3,73,0.00,,---,0.00,VWS V14.01,2013-09-21 15:47:00,
2013-09-21 11:52:00,60.9,51.8,29.79,North,350,5.3,5.3,72,0.00,,---,0.00,VWS V14.01,2013-09-21 15:52:00,
2013-09-21 11:57:00,61.3,51.8,29.79,North,350,6.3,6.3,71,0.00,,---,0.00,VWS V14.01,2013-09-21 15:57:00,
2013-09-21 12:02:00,61.3,51.4,29.79,NW,305,8.3,8.3,70,0.00,,---,0.00,VWS V14.01,2013-09-21 16:02:00,
2013-09-21 12:07:00,61.5,51.2,29.79,North,350,7.0,7.0,69,0.00,,---,0.00,VWS V14.01,2013-09-21 16:07:00,
2013-09-21 12:12:00,61.6,51.4,29.79,West,260,5.0,5.0,69,0.00,,---,0.00,VWS V14.01,2013-09-21 16:12:00,
2013-09-21 12:17:00,61.1,51.2,29.79,NW,305,4.6,4.6,70,0.00,,---,0.00,VWS V14.01,2013-09-21 16:17:00,
2013-09-21 12:22:00,61.6,51.8,29.79,WNW,282,2.0,2.0,70,0.00,,---,0.00,VWS V14.01,2013-09-21 16:22:00,
2013-09-21 12:27:00,61.8,51.9,29.79,North,350,8.3,8.6,70,0.00,,---,0.00,VWS V14.01,2013-09-21 16:27:00,
2013-09-21 12:32:00,61.6,51.0,29.79,West,260,4.3,4.3,68,0.00,,---,0.00,VWS V14.01,2013-09-21 16:32:00,
2013-09-21 12:37:00,62.4,51.3,29.79,WNW,282,6.0,6.0,67,0.00,,---,0.00,VWS V14.01,2013-09-21 16:37:00,
2013-09-21 12:42:00,62.7,51.6,29.79,North,350,11.3,11.3,67,0.00,,---,0.00,VWS V14.01,2013-09-21 16:42:00,
2013-09-21 12:47:00,62.7,52.0,29.79,North,350,8.9,8.9,68,0.00,,---,0.00,VWS V14.01,2013-09-21 16:47:00,
2013-09-21 12:52:00,62.5,51.5,29.79,North,350,5.6,5.6,67,0.00,,---,0.00,VWS V14.01,2013-09-21 16:52:00,
2013-09-21 12:57:00,62.4,51.7,29.79,NE,35,7.9,7.9,68,0.00,,---,0.00,VWS V14.01,2013-09-21 16:57:00,
2013-09-21 13:02:00,61.8,50.8,29.79,NW,305,8.3,8.3,67,0.00,,---,0.00,VWS V14.01,2013-09-21 17:02:00,
2013-09-21 13:07:00,62.0,50.5,29.79,West,260,4.0,4.3,66,0.00,,---,0.00,VWS V14.01,2013-09-21 17:07:00,
2013-09-21 13:12:00,62.9,50.5,29.79,West,260,5.0,5.0,64,0.00,,---,0.00,VWS V14.01,2013-09-21 17:12:00,
2013-09-21 13:17:00,63.3,50.9,29.79,NW,305,4.0,7.9,64,0.00,,---,0.00,VWS V14.01,2013-09-21 17:17:00,
2013-09-21 13:22:00,63.6,50.8,29.79,NW,305,7.0,7.0,63,0.00,,---,0.00,VWS V14.01,2013-09-21 17:22:00,
2013-09-21 13:27:00,64.0,50.7,29.79,NW,305,3.3,3.6,62,0.00,,---,0.00,VWS V14.01,2013-09-21 17:27:00,
2013-09-21 13:32:00,64.3,50.6,29.79,NW,305,5.6,5.6,61,0.00,,---,0.00,VWS V14.01,2013-09-21 17:32:00,
2013-09-21 13:38:00,65.1,50.8,29.79,NW,305,5.0,12.9,60,0.00,,---,0.00,VWS V14.01,2013-09-21 17:38:00,
2013-09-21 13:43:00,66.1,51.9,29.79,NW,305,5.3,10.9,60,0.00,,---,0.00,VWS V14.01,2013-09-21 17:43:00,
2013-09-21 13:48:00,65.1,50.8,29.79,NW,305,8.9,8.9,60,0.00,,---,0.00,VWS V14.01,2013-09-21 17:48:00,
2013-09-21 13:53:00,64.0,49.8,29.79,NW,305,3.6,5.0,60,0.00,,---,0.00,VWS V14.01,2013-09-21 17:53:00,
2013-09-21 13:58:00,63.6,49.9,29.79,NW,305,4.0,6.3,61,0.00,,---,0.00,VWS V14.01,2013-09-21 17:58:00,
2013-09-21 14:03:00,64.2,50.9,29.79,NW,305,5.6,5.6,62,0.00,,---,0.00,VWS V14.01,2013-09-21 18:03:00,
2013-09-21 14:08:00,64.7,50.1,29.79,West,260,3.6,14.6,59,0.00,,---,0.00,VWS V14.01,2013-09-21 18:08:00,
2013-09-21 14:13:00,64.5,50.3,29.79,North,350,3.6,4.0,60,0.00,,---,0.00,VWS V14.01,2013-09-21 18:13:00,
2013-09-21 14:18:00,65.1,49.9,29.79,NE,35,8.3,8.3,58,0.00,,---,0.00,VWS V14.01,2013-09-21 18:18:00,
2013-09-21 14:23:00,64.2,49.5,29.79,NW,305,6.0,6.0,59,0.00,,---,0.00,VWS V14.01,2013-09-21 18:23:00,
2013-09-21 14:28:00,64.9,48.8,29.79,WNW,282,5.6,5.6,56,0.00,,---,0.00,VWS V14.01,2013-09-21 18:28:00,
2013-09-21 14:33:00,65.8,50.6,29.79,North,350,4.3,5.3,58,0.00,,---,0.00,VWS V14.01,2013-09-21 18:33:00,
2013-09-21 14:38:00,66.0,50.8,29.79,West,260,4.3,4.3,58,0.00,,---,0.00,VWS V14.01,2013-09-21 18:38:00,
2013-09-21 14:43:00,66.7,51.5,29.79,North,350,5.6,8.9,58,0.00,,---,0.00,VWS V14.01,2013-09-21 18:43:00,
2013-09-21 14:48:00,65.4,50.7,29.79,West,260,5.0,5.0,59,0.00,,---,0.00,VWS V14.01,2013-09-21 18:48:00,
2013-09-21 14:53:00,64.5,49.4,29.79,NW,305,2.0,5.6,58,0.00,,---,0.00,VWS V14.01,2013-09-21 18:53:00,
2013-09-21 14:58:00,63.8,48.8,29.79,West,260,3.3,7.0,58,0.00,,---,0.00,VWS V14.01,2013-09-21 18:58:00,
2013-09-21 15:03:00,63.6,49.0,29.79,North,350,5.3,5.3,59,0.00,,---,0.00,VWS V14.01,2013-09-21 19:03:00,
2013-09-21 15:08:00,62.7,48.7,29.79,West,260,4.6,4.6,60,0.00,,---,0.00,VWS V14.01,2013-09-21 19:08:00,
2013-09-21 15:13:00,62.5,48.5,29.82,NW,305,3.6,5.6,60,0.00,,---,0.00,VWS V14.01,2013-09-21 19:13:00,
2013-09-21 15:18:00,62.5,48.5,29.82,NW,305,5.3,5.3,60,0.00,,---,0.00,VWS V14.01,2013-09-21 19:18:00,
2013-09-21 15:23:00,62.5,48.5,29.82,WNW,282,5.3,9.6,60,0.00,,---,0.00,VWS V14.01,2013-09-21 19:23:00,
2013-09-21 15:28:00,62.4,48.8,29.82,WSW,238,5.0,5.0,61,0.00,,---,0.00,VWS V14.01,2013-09-21 19:28:00,
2013-09-21 15:33:00,62.2,48.6,29.82,North,350,5.0,5.6,61,0.00,,---,0.00,VWS V14.01,2013-09-21 19:33:00,
2013-09-21 15:39:00,61.6,48.1,29.82,West,260,3.0,7.0,61,0.00,,---,0.00,VWS V14.01,2013-09-21 19:39:00,
2013-09-21 15:44:00,61.5,48.3,29.82,West,260,6.3,6.3,62,0.00,,---,0.00,VWS V14.01,2013-09-21 19:44:00,
2013-09-21 15:49:00,61.1,48.4,29.82,WNW,282,2.3,2.3,63,0.00,,---,0.00,VWS V14.01,2013-09-21 19:49:00,
2013-09-21 15:54:00,60.7,48.5,29.82,West,260,8.6,8.6,64,0.00,,---,0.00,VWS V14.01,2013-09-21 19:54:00,
2013-09-21 15:59:00,60.4,48.2,29.82,NW,305,14.2,14.2,64,0.00,,---,0.00,VWS V14.01,2013-09-21 19:59:00,
2013-09-21 16:04:00,60.2,48.4,29.82,WNW,282,5.6,5.6,65,0.00,,---,0.00,VWS V14.01,2013-09-21 20:04:00,
2013-09-21 16:09:00,60.0,48.2,29.82,NW,305,11.6,11.6,65,0.00,,---,0.00,VWS V14.01,2013-09-21 20:09:00,
2013-09-21 16:14:00,59.8,48.5,29.82,NE,35,5.3,5.3,66,0.00,,---,0.00,VWS V14.01,2013-09-21 20:14:00,
2013-09-21 16:19:00,59.5,47.7,29.82,NW,305,7.9,7.9,65,0.00,,---,0.00,VWS V14.01,2013-09-21 20:19:00,
2013-09-21 16:24:00,59.5,48.1,29.82,NW,305,4.6,4.6,66,0.00,,---,0.00,VWS V14.01,2013-09-21 20:24:00,
2013-09-21 16:29:00,59.3,48.0,29.82,North,350,4.6,4.6,66,0.00,,---,0.00,VWS V14.01,2013-09-21 20:29:00,
2013-09-21 16:34:00,59.1,47.8,29.82,NW,305,8.3,8.3,66,0.00,,---,0.00,VWS V14.01,2013-09-21 20:34:00,
2013-09-21 16:39:00,58.9,47.6,29.82,SW,215,6.0,6.0,66,0.00,,---,0.00,VWS V14.01,2013-09-21 20:39:00,
2013-09-21 16:44:00,59.1,47.8,29.82,West,260,5.0,6.3,66,0.00,,---,0.00,VWS V14.01,2013-09-21 20:44:00,
2013-09-21 16:49:00,59.1,48.2,29.82,West,260,6.3,6.3,67,0.00,,---,0.00,VWS V14.01,2013-09-21 20:49:00,
2013-09-21 16:54:00,59.1,48.2,29.82,North,350,5.0,5.0,67,0.00,,---,0.00,VWS V14.01,2013-09-21 20:54:00,
2013-09-21 16:59:00,59.3,48.4,29.82,North,350,6.3,6.3,67,0.00,,---,0.00,VWS V14.01,2013-09-21 20:59:00,
2013-09-21 17:05:00,59.7,48.7,29.82,NW,305,2.0,3.0,67,0.00,,---,0.00,VWS V14.01,2013-09-21 21:05:00,
2013-09-21 17:10:00,60.0,49.0,29.82,NW,305,8.9,8.9,67,0.00,,---,0.00,VWS V14.01,2013-09-21 21:10:00,
2013-09-21 17:15:00,60.0,49.0,29.82,North,350,4.0,8.9,67,0.00,,---,0.00,VWS V14.01,2013-09-21 21:15:00,
2013-09-21 17:20:00,60.0,49.0,29.82,NW,305,4.6,4.6,67,0.00,,---,0.00,VWS V14.01,2013-09-21 21:20:00,
2013-09-21 17:25:00,59.8,48.9,29.82,West,260,5.0,6.3,67,0.00,,---,0.00,VWS V14.01,2013-09-21 21:25:00,
2013-09-21 17:30:00,59.8,48.5,29.82,North,350,3.0,4.6,66,0.00,,---,0.00,VWS V14.01,2013-09-21 21:30:00,
2013-09-21 17:35:00,59.8,48.5,29.82,NW,305,7.3,7.3,66,0.00,,---,0.00,VWS V14.01,2013-09-21 21:35:00,
2013-09-21 17:40:00,59.8,48.5,29.82,SW,215,4.0,6.3,66,0.00,,---,0.00,VWS V14.01,2013-09-21 21:40:00,
2013-09-21 17:45:00,59.8,48.5,29.82,North,350,8.3,8.3,66,0.00,,---,0.00,VWS V14.01,2013-09-21 21:45:00,
2013-09-21 17:50:00,59.7,48.3,29.82,North,350,5.3,5.3,66,0.00,,---,0.00,VWS V14.01,2013-09-21 21:50:00,
2013-09-21 17:55:00,59.7,48.3,29.82,West,260,5.0,5.3,66,0.00,,---,0.00,VWS V14.01,2013-09-21 21:55:00,
2013-09-21 18:01:00,59.5,48.5,29.82,WSW,238,4.0,4.0,67,0.00,,---,0.00,VWS V14.01,2013-09-21 22:01:00,
2013-09-21 18:06:00,59.3,48.4,29.82,WNW,282,4.3,4.3,67,0.00,,---,0.00,VWS V14.01,2013-09-21 22:06:00,
2013-09-21 18:11:00,59.1,48.2,29.82,NW,305,3.0,4.0,67,0.00,,---,0.00,VWS V14.01,2013-09-21 22:11:00,
2013-09-21 18:16:00,58.8,47.8,29.85,North,350,5.3,5.3,67,0.00,,---,0.00,VWS V14.01,2013-09-21 22:16:00,
2013-09-21 18:21:00,58.8,47.8,29.85,NW,305,4.6,9.6,67,0.00,,---,0.00,VWS V14.01,2013-09-21 22:21:00,
2013-09-21 18:26:00,58.6,47.7,29.85,NW,305,3.0,3.0,67,0.00,,---,0.00,VWS V14.01,2013-09-21 22:26:00,
2013-09-21 18:31:00,58.6,47.7,29.85,NW,305,4.0,4.0,67,0.00,,---,0.00,VWS V14.01,2013-09-21 22:31:00,
2013-09-21 18:36:00,58.6,47.7,29.85,North,350,3.6,3.6,67,0.00,,---,0.00,VWS V14.01,2013-09-21 22:36:00,
2013-09-21 18:41:00,58.4,47.9,29.85,NW,305,4.0,4.0,68,0.00,,---,0.00,VWS V14.01,2013-09-21 22:41:00,
2013-09-21 18:46:00,58.2,47.7,29.85,West,260,5.3,5.3,68,0.00,,---,0.00,VWS V14.01,2013-09-21 22:46:00,
2013-09-21 18:51:00,58.2,47.7,29.85,NW,305,4.0,4.0,68,0.00,,---,0.00,VWS V14.01,2013-09-21 22:51:00,
2013-09-21 18:56:00,58.0,47.5,29.85,NW,305,3.6,3.6,68,0.00,,---,0.00,VWS V14.01,2013-09-21 22:56:00,
2013-09-21 19:01:00,58.0,47.9,29.85,NW,305,8.3,8.3,69,0.00,,---,0.00,VWS V14.01,2013-09-21 23:01:00,
2013-09-21 19:06:00,58.0,47.5,29.85,West,260,3.6,3.6,68,0.00,,---,0.00,VWS V14.01,2013-09-21 23:06:00,
2013-09-21 19:11:00,57.9,47.8,29.85,North,350,2.3,4.0,69,0.00,,---,0.00,VWS V14.01,2013-09-21 23:11:00,
2013-09-21 19:16:00,57.9,47.8,29.85,NW,305,3.3,3.3,69,0.00,,---,0.00,VWS V14.01,2013-09-21 23:16:00,
2013-09-21 19:21:00,57.9,47.8,29.85,NW,305,4.3,4.3,69,0.00,,---,0.00,VWS V14.01,2013-09-21 23:21:00,
2013-09-21 19:26:00,57.7,47.6,29.85,North,350,4.0,4.0,69,0.00,,---,0.00,VWS V14.01,2013-09-21 23:26:00,
2013-09-21 19:31:00,57.7,48.0,29.85,North,350,4.6,5.6,70,0.00,,---,0.00,VWS V14.01,2013-09-21 23:31:00,
2013-09-21 19:36:00,57.5,47.8,29.85,NW,305,0.0,0.0,70,0.00,,---,0.00,VWS V14.01,2013-09-21 23:36:00,
2013-09-21 19:41:00,57.5,47.8,29.85,West,260,2.0,3.6,70,0.00,,---,0.00,VWS V14.01,2013-09-21 23:41:00,
2013-09-21 19:46:00,57.5,47.8,29.85,NW,305,1.3,1.3,70,0.00,,---,0.00,VWS V14.01,2013-09-21 23:46:00,
2013-09-21 19:51:00,57.3,47.6,29.85,NE,35,2.3,4.0,70,0.00,,---,0.00,VWS V14.01,2013-09-21 23:51:00,
2013-09-21 19:57:00,57.3,47.6,29.85,North,350,3.6,3.6,70,0.00,,---,0.00,VWS V14.01,2013-09-21 23:57:00,
2013-09-21 20:02:00,57.3,47.6,29.85,NW,305,5.0,5.0,70,0.00,,---,0.00,VWS V14.01,2013-09-22 00:02:00,
2013-09-21 20:07:00,57.1,47.5,29.85,NW,305,2.3,2.3,70,0.00,,---,0.00,VWS V14.01,2013-09-22 00:07:00,
2013-09-21 20:12:00,57.1,47.5,29.85,NE,35,5.0,5.0,70,0.00,,---,0.00,VWS V14.01,2013-09-22 00:12:00,
2013-09-21 20:17:00,57.0,47.3,29.85,NW,305,2.0,2.0,70,0.00,,---,0.00,VWS V14.01,2013-09-22 00:17:00,
2013-09-21 20:22:00,57.0,47.7,29.85,NW,305,2.3,2.3,71,0.00,,---,0.00,VWS V14.01,2013-09-22 00:22:00,
2013-09-21 20:27:00,57.0,47.7,29.85,NW,305,2.0,4.3,71,0.00,,---,0.00,VWS V14.01,2013-09-22 00:27:00,
2013-09-21 20:32:00,57.0,47.7,29.85,North,350,3.3,3.3,71,0.00,,---,0.00,VWS V14.01,2013-09-22 00:32:00,
2013-09-21 20:37:00,56.8,47.1,29.85,NW,305,0.0,3.6,70,0.00,,---,0.00,VWS V14.01,2013-09-22 00:37:00,
2013-09-21 20:42:00,56.8,47.5,29.85,NW,305,5.6,5.6,71,0.00,,---,0.00,VWS V14.01,2013-09-22 00:42:00,
2013-09-21 20:47:00,56.6,47.3,29.85,NW,305,0.0,2.0,71,0.00,,---,0.00,VWS V14.01,2013-09-22 00:47:00,
2013-09-21 20:52:00,56.6,47.3,29.85,NW,305,3.6,3.6,71,0.00,,---,0.00,VWS V14.01,2013-09-22 00:52:00,
2013-09-21 20:57:00,56.6,47.3,29.85,North,350,2.0,3.0,71,0.00,,---,0.00,VWS V14.01,2013-09-22 00:57:00,
2013-09-21 21:02:00,56.6,47.3,29.85,NW,305,0.0,0.0,71,0.00,,---,0.00,VWS V14.01,2013-09-22 01:02:00,
2013-09-21 21:07:00,56.4,47.5,29.85,West,260,5.0,5.0,72,0.00,,---,0.00,VWS V14.01,2013-09-22 01:07:00,
2013-09-21 21:12:00,56.2,47.0,29.85,North,350,3.0,3.3,71,0.00,,---,0.00,VWS V14.01,2013-09-22 01:12:00,
2013-09-21 21:17:00,56.2,47.3,29.85,NW,305,2.3,3.3,72,0.00,,---,0.00,VWS V14.01,2013-09-22 01:17:00,
2013-09-21 21:22:00,56.2,47.3,29.85,NW,305,1.3,3.0,72,0.00,,---,0.00,VWS V14.01,2013-09-22 01:22:00,
2013-09-21 21:27:00,56.2,47.3,29.85,NW,305,2.0,3.6,72,0.00,,---,0.00,VWS V14.01,2013-09-22 01:27:00,
2013-09-21 21:33:00,56.2,47.3,29.85,West,260,3.6,5.0,72,0.00,,---,0.00,VWS V14.01,2013-09-22 01:33:00,
2013-09-21 21:38:00,56.2,47.3,29.85,North,350,6.0,6.0,72,0.00,,---,0.00,VWS V14.01,2013-09-22 01:38:00,
2013-09-21 21:43:00,56.2,47.3,29.85,NE,35,3.6,3.6,72,0.00,,---,0.00,VWS V14.01,2013-09-22 01:43:00,
2013-09-21 21:48:00,56.2,47.3,29.85,NW,305,3.6,3.6,72,0.00,,---,0.00,VWS V14.01,2013-09-22 01:48:00,
2013-09-21 21:53:00,56.2,47.7,29.85,NW,305,0.0,2.3,73,0.00,,---,0.00,VWS V14.01,2013-09-22 01:53:00,
2013-09-21 21:58:00,56.2,47.7,29.85,NW,305,2.0,2.0,73,0.00,,---,0.00,VWS V14.01,2013-09-22 01:58:00,
2013-09-21 22:03:00,56.2,47.7,29.85,West,260,3.3,3.3,73,0.00,,---,0.00,VWS V14.01,2013-09-22 02:03:00,
2013-09-21 22:08:00,56.1,47.5,29.85,North,350,0.0,0.0,73,0.00,,---,0.00,VWS V14.01,2013-09-22 02:08:00,
2013-09-21 22:13:00,56.1,47.5,29.85,NNW,328,0.0,3.0,73,0.00,,---,0.00,VWS V14.01,2013-09-22 02:13:00,
2013-09-21 22:18:00,56.1,47.5,29.85,North,350,1.3,2.0,73,0.00,,---,0.00,VWS V14.01,2013-09-22 02:18:00,
2013-09-21 22:23:00,56.1,47.5,29.85,North,350,0.0,2.0,73,0.00,,---,0.00,VWS V14.01,2013-09-22 02:23:00,
2013-09-21 22:28:00,55.9,47.4,29.85,NW,305,4.0,4.0,73,0.00,,---,0.00,VWS V14.01,2013-09-22 02:28:00,
2013-09-21 22:33:00,55.9,47.4,29.85,NW,305,2.3,4.3,73,0.00,,---,0.00,VWS V14.01,2013-09-22 02:33:00,
2013-09-21 22:38:00,55.9,47.4,29.85,NW,305,3.6,3.6,73,0.00,,---,0.00,VWS V14.01,2013-09-22 02:38:00,
2013-09-21 22:43:00,55.7,47.2,29.85,North,350,2.0,2.0,73,0.00,,---,0.00,VWS V14.01,2013-09-22 02:43:00,
2013-09-21 22:48:00,55.7,47.2,29.85,NW,305,2.3,2.3,73,0.00,,---,0.00,VWS V14.01,2013-09-22 02:48:00,
2013-09-21 22:53:00,55.7,47.2,29.85,NW,305,0.0,0.0,73,0.00,,---,0.00,VWS V14.01,2013-09-22 02:53:00,
2013-09-21 22:58:00,55.7,47.2,29.88,NW,305,2.0,2.0,73,0.00,,---,0.00,VWS V14.01,2013-09-22 02:58:00,
2013-09-21 23:03:00,55.7,47.2,29.88,North,350,3.3,3.6,73,0.00,,---,0.00,VWS V14.01,2013-09-22 03:03:00,
2013-09-21 23:08:00,55.7,47.2,29.88,NW,305,4.6,4.6,73,0.00,,---,0.00,VWS V14.01,2013-09-22 03:08:00,
2013-09-21 23:13:00,55.5,47.0,29.88,WNW,282,4.6,4.6,73,0.00,,---,0.00,VWS V14.01,2013-09-22 03:13:00,
2013-09-21 23:18:00,55.5,47.0,29.88,North,350,1.3,3.6,73,0.00,,---,0.00,VWS V14.01,2013-09-22 03:18:00,
2013-09-21 23:23:00,55.5,47.0,29.88,North,350,3.0,6.0,73,0.00,,---,0.00,VWS V14.01,2013-09-22 03:23:00,
2013-09-21 23:28:00,55.5,47.0,29.88,NE,35,2.3,3.3,73,0.00,,---,0.00,VWS V14.01,2013-09-22 03:28:00,
2013-09-21 23:33:00,55.3,46.8,29.88,North,350,4.3,4.3,73,0.00,,---,0.00,VWS V14.01,2013-09-22 03:33:00,
2013-09-21 23:38:00,55.3,46.8,29.88,NE,35,3.3,3.3,73,0.00,,---,0.00,VWS V14.01,2013-09-22 03:38:00,
2013-09-21 23:43:00,55.3,46.8,29.88,North,350,2.0,5.6,73,0.00,,---,0.00,VWS V14.01,2013-09-22 03:43:00,
2013-09-21 23:49:00,55.3,46.8,29.88,North,350,2.0,2.0,73,0.00,,---,0.00,VWS V14.01,2013-09-22 03:49:00,
2013-09-21 23:54:00,55.2,46.7,29.88,NW,305,3.6,3.6,73,0.00,,---,0.00,VWS V14.01,2013-09-22 03:54:00,
2013-09-21 23:59:00,55.2,46.7,29.88,North,350,1.7,3.3,73,0.00,,---,0.00,VWS V14.01,2013-09-22 03:59:00,